Time,TemperatureF,DewpointF,PressureIn,WindDirection,WindDirectionDegrees,WindSpeedMPH,WindSpeedGustMPH,Humidity,HourlyPrecipIn,Conditions,Clouds,dailyrainin,SoftwareType,DateUTC
2013-03-07 00:00:00,42.8,32.2,30.15,NW,313,4.0,4.0,66,0.00,,,0.00,Wunderground v.1.15,2013-03-07 05:00:00,
2013-03-07 00:02:00,42.8,32.2,30.15,West,281,4.0,8.0,66,0.00,,,0.00,Wunderground v.1.15,2013-03-07 05:02:00,
2013-03-07 00:06:00,42.8,31.8,30.15,WNW,293,4.0,8.0,65,0.00,,,0.00,Wunderground v.1.15,2013-03-07 05:06:00,
2013-03-07 00:10:00,42.8,31.8,30.15,West,264,4.0,4.0,65,0.00,,,0.00,Wunderground v.1.15,2013-03-07 05:10:00,
2013-03-07 00:16:00,42.7,31.7,30.15,NNW,344,4.0,6.0,65,0.00,,,0.00,Wunderground v.1.15,2013-03-07 05:16:00,
2013-03-07 00:22:00,42.5,31.9,30.15,WSW,252,3.0,3.0,66,0.00,,,0.00,Wunderground v.1.15,2013-03-07 05:22:00,
2013-03-07 00:28:00,42.3,31.7,30.15,SW,227,3.0,6.0,66,0.00,,,0.00,Wunderground v.1.15,2013-03-07 05:28:00,
2013-03-07 00:34:00,42.0,31.8,30.15,NE,44,3.0,7.0,67,0.00,,,0.00,Wunderground v.1.15,2013-03-07 05:34:00,
2013-03-07 00:40:00,41.9,31.7,30.15,East,101,2.0,2.0,67,0.00,,,0.00,Wunderground v.1.15,2013-03-07 05:40:00,
2013-03-07 00:46:00,41.7,31.5,30.15,NNE,14,2.0,3.0,67,0.00,,,0.00,Wunderground v.1.15,2013-03-07 05:46:00,
2013-03-07 00:52:00,41.5,31.7,30.16,NE,51,3.0,3.0,68,0.00,,,0.00,Wunderground v.1.15,2013-03-07 05:52:00,
2013-03-07 00:58:00,41.4,31.6,30.15,NE,43,3.0,3.0,68,0.00,,,0.00,Wunderground v.1.15,2013-03-07 05:58:00,
2013-03-07 01:04:00,41.2,31.4,30.16,NNW,344,2.0,8.0,68,0.00,,,0.00,Wunderground v.1.15,2013-03-07 06:04:00,
2013-03-07 01:10:00,41.0,31.6,30.16,NNW,344,2.0,3.0,69,0.00,,,0.00,Wunderground v.1.15,2013-03-07 06:10:00,
2013-03-07 01:16:00,40.8,31.4,30.16,NW,323,3.0,4.0,69,0.00,,,0.00,Wunderground v.1.15,2013-03-07 06:16:00,
2013-03-07 01:22:00,40.6,31.6,30.16,WNW,284,2.0,3.0,70,0.00,,,0.00,Wunderground v.1.15,2013-03-07 06:22:00,
2013-03-07 01:28:00,40.4,31.7,30.17,NNE,24,2.0,4.0,71,0.00,,,0.00,Wunderground v.1.15,2013-03-07 06:28:00,
2013-03-07 01:34:00,40.4,31.7,30.17,NNW,329,2.0,3.0,71,0.00,,,0.00,Wunderground v.1.15,2013-03-07 06:34:00,
2013-03-07 01:40:00,40.4,31.7,30.17,WNW,292,3.0,3.0,71,0.00,,,0.00,Wunderground v.1.15,2013-03-07 06:40:00,
2013-03-07 01:46:00,40.4,31.7,30.17,WNW,287,4.0,6.0,71,0.00,,,0.00,Wunderground v.1.15,2013-03-07 06:46:00,
2013-03-07 01:52:00,40.2,31.5,30.17,NNW,330,3.0,3.0,71,0.00,,,0.00,Wunderground v.1.15,2013-03-07 06:52:00,
2013-03-07 01:58:00,40.1,31.4,30.17,NNE,12,2.0,4.0,71,0.00,,,0.00,Wunderground v.1.15,2013-03-07 06:58:00,
2013-03-07 02:04:00,40.0,31.4,30.17,NW,320,3.0,8.0,71,0.00,,,0.00,Wunderground v.1.15,2013-03-07 07:04:00,
2013-03-07 02:10:00,39.9,31.3,30.17,NNW,336,3.0,3.0,71,0.00,,,0.00,Wunderground v.1.15,2013-03-07 07:10:00,
2013-03-07 02:16:00,39.8,31.5,30.17,NNW,338,3.0,3.0,72,0.00,,,0.00,Wunderground v.1.15,2013-03-07 07:16:00,
2013-03-07 02:22:00,39.6,31.3,30.17,NNW,337,2.0,4.0,72,0.00,,,0.00,Wunderground v.1.15,2013-03-07 07:22:00,
2013-03-07 02:28:00,39.3,31.0,30.16,East,88,2.0,4.0,72,0.00,,,0.00,Wunderground v.1.15,2013-03-07 07:28:00,
2013-03-07 02:34:00,39.1,31.2,30.16,NW,311,1.0,1.0,73,0.00,,,0.00,Wunderground v.1.15,2013-03-07 07:34:00,
2013-03-07 02:40:00,38.9,31.3,30.16,NNW,336,1.0,1.0,74,0.00,,,0.00,Wunderground v.1.15,2013-03-07 07:40:00,
2013-03-07 02:46:00,38.7,31.1,30.16,WNW,303,1.0,1.0,74,0.00,,,0.00,Wunderground v.1.15,2013-03-07 07:46:00,
2013-03-07 02:52:00,38.5,31.3,30.17,NNW,344,2.0,3.0,75,0.00,,,0.00,Wunderground v.1.15,2013-03-07 07:52:00,
2013-03-07 02:58:00,38.4,31.2,30.17,NW,315,3.0,4.0,75,0.00,,,0.00,Wunderground v.1.15,2013-03-07 07:58:00,
2013-03-07 03:04:00,38.3,31.1,30.16,NNE,20,2.0,7.0,75,0.00,,,0.00,Wunderground v.1.15,2013-03-07 08:04:00,
2013-03-07 03:10:00,38.3,31.1,30.16,NNE,13,2.0,5.0,75,0.00,,,0.00,Wunderground v.1.15,2013-03-07 08:10:00,
2013-03-07 03:16:00,38.3,31.1,30.16,NE,43,3.0,5.0,75,0.00,,,0.00,Wunderground v.1.15,2013-03-07 08:16:00,
2013-03-07 03:22:00,38.3,31.1,30.16,NE,49,3.0,4.0,75,0.00,,,0.00,Wunderground v.1.15,2013-03-07 08:22:00,
2013-03-07 03:28:00,38.4,30.8,30.16,WNW,303,4.0,6.0,74,0.00,,,0.00,Wunderground v.1.15,2013-03-07 08:28:00,
2013-03-07 03:34:00,38.5,30.9,30.17,WNW,288,4.0,7.0,74,0.00,,,0.00,Wunderground v.1.15,2013-03-07 08:34:00,
2013-03-07 03:40:00,38.4,30.8,30.17,WNW,288,4.0,4.0,74,0.00,,,0.00,Wunderground v.1.15,2013-03-07 08:40:00,
2013-03-07 03:46:00,38.4,31.2,30.17,West,276,4.0,4.0,75,0.00,,,0.00,Wunderground v.1.15,2013-03-07 08:46:00,
2013-03-07 03:52:00,38.2,31.0,30.17,NW,306,3.0,4.0,75,0.00,,,0.00,Wunderground v.1.15,2013-03-07 08:52:00,
2013-03-07 03:58:00,38.0,31.1,30.17,NW,318,2.0,4.0,76,0.00,,,0.00,Wunderground v.1.15,2013-03-07 08:58:00,
2013-03-07 04:04:00,37.8,30.9,30.17,NW,313,2.0,6.0,76,0.00,,,0.00,Wunderground v.1.15,2013-03-07 09:04:00,
2013-03-07 04:10:00,37.6,31.0,30.17,NNW,335,1.0,1.0,77,0.00,,,0.00,Wunderground v.1.15,2013-03-07 09:10:00,
2013-03-07 04:16:00,37.4,30.8,30.18,North,349,2.0,3.0,77,0.00,,,0.00,Wunderground v.1.15,2013-03-07 09:16:00,
2013-03-07 04:22:00,37.3,30.7,30.18,WNW,296,2.0,2.0,77,0.00,,,0.00,Wunderground v.1.15,2013-03-07 09:22:00,
2013-03-07 04:28:00,37.1,30.9,30.18,NNE,30,2.0,3.0,78,0.00,,,0.00,Wunderground v.1.15,2013-03-07 09:28:00,
2013-03-07 04:34:00,37.0,31.1,30.18,NW,309,3.0,3.0,79,0.00,,,0.00,Wunderground v.1.15,2013-03-07 09:34:00,
2013-03-07 04:40:00,36.8,30.9,30.18,WNW,285,2.0,2.0,79,0.00,,,0.00,Wunderground v.1.15,2013-03-07 09:40:00,
2013-03-07 04:46:00,36.7,31.1,30.18,SW,233,1.0,3.0,80,0.00,,,0.00,Wunderground v.1.15,2013-03-07 09:46:00,
2013-03-07 04:52:00,36.5,30.9,30.18,WNW,285,2.0,2.0,80,0.00,,,0.00,Wunderground v.1.15,2013-03-07 09:52:00,
2013-03-07 04:58:00,36.4,31.1,30.18,WNW,291,2.0,2.0,81,0.00,,,0.00,Wunderground v.1.15,2013-03-07 09:58:00,
2013-03-07 05:04:00,36.4,31.1,30.18,WNW,290,2.0,6.0,81,0.00,,,0.00,Wunderground v.1.15,2013-03-07 10:04:00,
2013-03-07 05:10:00,36.3,31.0,30.19,SSW,195,2.0,2.0,81,0.00,,,0.00,Wunderground v.1.15,2013-03-07 10:10:00,
2013-03-07 05:16:00,36.2,30.9,30.19,East,84,2.0,2.0,81,0.00,,,0.00,Wunderground v.1.15,2013-03-07 10:16:00,
2013-03-07 05:24:00,36.0,31.0,30.19,SSE,160,2.0,4.0,82,0.00,,,0.00,Wunderground v.1.15,2013-03-07 10:24:00,
2013-03-07 05:30:00,35.9,30.9,30.19,SSW,199,1.0,1.0,82,0.00,,,0.00,Wunderground v.1.15,2013-03-07 10:30:00,
2013-03-07 05:36:00,35.8,30.8,30.19,NNW,333,1.0,3.0,82,0.00,,,0.00,Wunderground v.1.15,2013-03-07 10:36:00,
2013-03-07 05:42:00,35.6,30.6,30.19,NW,306,2.0,2.0,82,0.00,,,0.00,Wunderground v.1.15,2013-03-07 10:42:00,
2013-03-07 05:48:00,35.4,30.8,30.19,West,273,1.0,2.0,83,0.00,,,0.00,Wunderground v.1.15,2013-03-07 10:48:00,
2013-03-07 05:54:00,35.3,30.7,30.20,ENE,57,1.0,1.0,83,0.00,,,0.00,Wunderground v.1.15,2013-03-07 10:54:00,
2013-03-07 06:00:00,35.2,30.6,30.20,SW,219,1.0,1.0,83,0.00,,,0.00,Wunderground v.1.15,2013-03-07 11:00:00,
2013-03-07 06:06:00,35.1,30.5,30.20,NNE,23,1.0,6.0,83,0.00,,,0.00,Wunderground v.1.15,2013-03-07 11:06:00,
2013-03-07 06:14:00,34.9,30.6,30.20,West,272,1.0,1.0,84,0.00,,,0.00,Wunderground v.1.15,2013-03-07 11:14:00,
2013-03-07 06:20:00,34.9,30.6,30.21,NNE,18,1.0,4.0,84,0.00,,,0.00,Wunderground v.1.15,2013-03-07 11:20:00,
2013-03-07 06:26:00,34.8,30.5,30.21,WNW,298,2.0,4.0,84,0.00,,,0.00,Wunderground v.1.15,2013-03-07 11:26:00,
2013-03-07 06:32:00,34.8,30.5,30.21,SSE,155,2.0,5.0,84,0.00,,,0.00,Wunderground v.1.15,2013-03-07 11:32:00,
2013-03-07 06:38:00,34.7,30.7,30.21,WSW,256,2.0,5.0,85,0.00,,,0.00,Wunderground v.1.15,2013-03-07 11:38:00,
2013-03-07 06:44:00,34.7,30.7,30.22,NE,43,2.0,3.0,85,0.00,,,0.00,Wunderground v.1.15,2013-03-07 11:44:00,
2013-03-07 06:50:00,34.7,30.7,30.22,NW,309,2.0,2.0,85,0.00,,,0.00,Wunderground v.1.15,2013-03-07 11:50:00,
2013-03-07 06:56:00,34.7,30.7,30.22,NW,319,2.0,3.0,85,0.00,,,0.00,Wunderground v.1.15,2013-03-07 11:56:00,
2013-03-07 07:02:00,34.8,30.8,30.22,North,11,2.0,4.0,85,0.00,,,0.00,Wunderground v.1.15,2013-03-07 12:02:00,
2013-03-07 07:08:00,34.9,30.8,30.22,NE,40,2.0,4.0,85,0.00,,,0.00,Wunderground v.1.15,2013-03-07 12:08:00,
2013-03-07 07:14:00,35.2,31.1,30.22,NNW,337,2.0,2.0,85,0.00,,,0.00,Wunderground v.1.15,2013-03-07 12:14:00,
2013-03-07 07:20:00,35.4,31.3,30.22,SW,236,2.0,3.0,85,0.00,,,0.00,Wunderground v.1.15,2013-03-07 12:20:00,
2013-03-07 07:26:00,35.7,31.3,30.23,West,261,3.0,4.0,84,0.00,,,0.00,Wunderground v.1.15,2013-03-07 12:26:00,
2013-03-07 07:32:00,36.0,31.6,30.23,West,272,3.0,4.0,84,0.00,,,0.00,Wunderground v.1.15,2013-03-07 12:32:00,
2013-03-07 07:38:00,36.4,31.7,30.23,WSW,247,3.0,4.0,83,0.00,,,0.00,Wunderground v.1.15,2013-03-07 12:38:00,
2013-03-07 07:44:00,36.7,31.7,30.23,North,11,3.0,7.0,82,0.00,,,0.00,Wunderground v.1.15,2013-03-07 12:44:00,
2013-03-07 07:50:00,37.2,32.2,30.24,West,276,3.0,3.0,82,0.00,,,0.00,Wunderground v.1.15,2013-03-07 12:50:00,
2013-03-07 07:56:00,37.6,32.3,30.23,West,265,3.0,4.0,81,0.00,,,0.00,Wunderground v.1.15,2013-03-07 12:56:00,
2013-03-07 08:02:00,38.1,32.8,30.23,SSW,206,3.0,6.0,81,0.00,,,0.00,Wunderground v.1.15,2013-03-07 13:02:00,
2013-03-07 08:08:00,38.5,32.6,30.23,SE,136,3.0,6.0,79,0.00,,,0.00,Wunderground v.1.15,2013-03-07 13:08:00,
2013-03-07 08:14:00,39.0,32.7,30.22,West,264,3.0,5.0,78,0.00,,,0.00,Wunderground v.1.15,2013-03-07 13:14:00,
2013-03-07 08:20:00,39.7,33.4,30.22,SE,138,3.0,3.0,78,0.00,,,0.00,Wunderground v.1.15,2013-03-07 13:20:00,
2013-03-07 08:26:00,40.3,33.7,30.22,SE,132,2.0,7.0,77,0.00,,,0.00,Wunderground v.1.15,2013-03-07 13:26:00,
2013-03-07 08:32:00,40.8,33.8,30.23,WNW,284,3.0,3.0,76,0.00,,,0.00,Wunderground v.1.15,2013-03-07 13:32:00,
2013-03-07 08:38:00,41.5,33.8,30.23,SSE,157,3.0,3.0,74,0.00,,,0.00,Wunderground v.1.15,2013-03-07 13:38:00,
2013-03-07 08:44:00,42.1,34.4,30.24,West,280,3.0,4.0,74,0.00,,,0.00,Wunderground v.1.15,2013-03-07 13:44:00,
2013-03-07 08:50:00,42.6,34.5,30.24,South,191,2.0,2.0,73,0.00,,,0.00,Wunderground v.1.15,2013-03-07 13:50:00,
2013-03-07 08:56:00,43.1,34.7,30.24,ESE,113,2.0,2.0,72,0.00,,,0.00,Wunderground v.1.15,2013-03-07 13:56:00,
2013-03-07 09:02:00,43.7,34.9,30.25,West,260,2.0,3.0,71,0.00,,,0.00,Wunderground v.1.15,2013-03-07 14:02:00,
2013-03-07 09:08:00,44.2,35.0,30.25,East,82,2.0,8.0,70,0.00,,,0.00,Wunderground v.1.15,2013-03-07 14:08:00,
2013-03-07 09:14:00,45.1,35.5,30.25,West,265,2.0,2.0,69,0.00,,,0.00,Wunderground v.1.15,2013-03-07 14:14:00,
2013-03-07 09:20:00,45.7,35.4,30.25,SE,145,2.0,3.0,67,0.00,,,0.00,Wunderground v.1.15,2013-03-07 14:20:00,
2013-03-07 09:26:00,46.3,35.6,30.25,East,101,2.0,3.0,66,0.00,,,0.00,Wunderground v.1.15,2013-03-07 14:26:00,
2013-03-07 09:32:00,46.5,35.7,30.25,East,87,2.0,2.0,66,0.00,,,0.00,Wunderground v.1.15,2013-03-07 14:32:00,
2013-03-07 09:38:00,47.4,36.2,30.25,WSW,241,2.0,2.0,65,0.00,,,0.00,Wunderground v.1.15,2013-03-07 14:38:00,
2013-03-07 09:44:00,48.5,37.3,30.25,NNE,31,2.0,3.0,65,0.00,,,0.00,Wunderground v.1.15,2013-03-07 14:44:00,
2013-03-07 09:50:00,48.9,36.4,30.25,SE,141,2.0,2.0,62,0.00,,,0.00,Wunderground v.1.15,2013-03-07 14:50:00,
2013-03-07 09:56:00,49.7,36.8,30.25,ENE,65,2.0,5.0,61,0.00,,,0.00,Wunderground v.1.15,2013-03-07 14:56:00,
2013-03-07 10:02:00,50.5,37.1,30.24,East,84,2.0,7.0,60,0.00,,,0.00,Wunderground v.1.15,2013-03-07 15:02:00,
2013-03-07 10:08:00,50.9,37.5,30.24,East,88,2.0,7.0,60,0.00,,,0.00,Wunderground v.1.15,2013-03-07 15:08:00,
2013-03-07 10:14:00,50.9,36.2,30.24,SSE,159,2.0,6.0,57,0.00,,,0.00,Wunderground v.1.15,2013-03-07 15:14:00,
2013-03-07 10:20:00,50.6,37.6,30.24,East,94,3.0,3.0,61,0.00,,,0.00,Wunderground v.1.15,2013-03-07 15:20:00,
2013-03-07 10:26:00,50.8,37.8,30.25,SSW,211,3.0,5.0,61,0.00,,,0.00,Wunderground v.1.15,2013-03-07 15:26:00,
2013-03-07 10:32:00,52.4,38.5,30.25,South,191,2.0,5.0,59,0.00,,,0.00,Wunderground v.1.15,2013-03-07 15:32:00,
2013-03-07 10:38:00,53.5,38.6,30.25,SSE,150,2.0,5.0,57,0.00,,,0.00,Wunderground v.1.15,2013-03-07 15:38:00,
2013-03-07 10:44:00,54.0,38.2,30.25,WSW,245,2.0,2.0,55,0.00,,,0.00,Wunderground v.1.15,2013-03-07 15:44:00,
2013-03-07 10:50:00,53.8,37.1,30.25,WNW,295,2.0,2.0,53,0.00,,,0.00,Wunderground v.1.15,2013-03-07 15:50:00,
2013-03-07 10:56:00,53.7,37.4,30.25,South,173,1.0,5.0,54,0.00,,,0.00,Wunderground v.1.15,2013-03-07 15:56:00,
2013-03-07 11:02:00,55.5,39.1,30.25,East,90,1.0,6.0,54,0.00,,,0.00,Wunderground v.1.15,2013-03-07 16:02:00,
2013-03-07 11:08:00,56.3,38.4,30.25,SSE,153,1.0,6.0,51,0.00,,,0.00,Wunderground v.1.15,2013-03-07 16:08:00,
2013-03-07 11:16:00,55.3,37.0,30.24,ESE,109,3.0,3.0,50,0.00,,,0.00,Wunderground v.1.15,2013-03-07 16:16:00,
2013-03-07 11:22:00,55.7,36.8,30.24,WSW,237,2.0,2.0,49,0.00,,,0.00,Wunderground v.1.15,2013-03-07 16:22:00,
2013-03-07 11:28:00,56.2,37.8,30.24,West,277,1.0,2.0,50,0.00,,,0.00,Wunderground v.1.15,2013-03-07 16:28:00,
2013-03-07 11:34:00,56.7,38.3,30.24,West,270,1.0,1.0,50,0.00,,,0.00,Wunderground v.1.15,2013-03-07 16:34:00,
2013-03-07 11:40:00,56.3,37.4,30.24,NW,309,2.0,2.0,49,0.00,,,0.00,Wunderground v.1.15,2013-03-07 16:40:00,
2013-03-07 11:46:00,56.7,38.3,30.24,NNW,342,2.0,4.0,50,0.00,,,0.00,Wunderground v.1.15,2013-03-07 16:46:00,
2013-03-07 11:52:00,57.1,38.6,30.24,NW,305,2.0,3.0,50,0.00,,,0.00,Wunderground v.1.15,2013-03-07 16:52:00,
2013-03-07 11:58:00,56.9,38.4,30.24,North,355,2.0,3.0,50,0.00,,,0.00,Wunderground v.1.15,2013-03-07 16:58:00,
2013-03-07 12:04:00,57.4,38.9,30.24,ESE,116,2.0,6.0,50,0.00,,,0.00,Wunderground v.1.15,2013-03-07 17:04:00,
2013-03-07 12:10:00,58.3,38.1,30.25,NE,53,2.0,2.0,47,0.00,,,0.00,Wunderground v.1.15,2013-03-07 17:10:00,
2013-03-07 12:16:00,59.8,38.4,30.24,SE,130,1.0,3.0,45,0.00,,,0.00,Wunderground v.1.15,2013-03-07 17:16:00,
2013-03-07 12:22:00,60.3,38.9,30.25,SSE,163,2.0,2.0,45,0.00,,,0.00,Wunderground v.1.15,2013-03-07 17:22:00,
2013-03-07 12:28:00,59.3,38.5,30.24,SE,135,2.0,5.0,46,0.00,,,0.00,Wunderground v.1.15,2013-03-07 17:28:00,
2013-03-07 12:34:00,59.3,38.5,30.24,ESE,117,3.0,4.0,46,0.00,,,0.00,Wunderground v.1.15,2013-03-07 17:34:00,
2013-03-07 12:40:00,59.0,38.2,30.23,SSE,156,3.0,3.0,46,0.00,,,0.00,Wunderground v.1.15,2013-03-07 17:40:00,
2013-03-07 12:46:00,59.7,38.3,30.23,ENE,71,2.0,5.0,45,0.00,,,0.00,Wunderground v.1.15,2013-03-07 17:46:00,
2013-03-07 12:52:00,60.9,38.8,30.22,ESE,122,2.0,3.0,44,0.00,,,0.00,Wunderground v.1.15,2013-03-07 17:52:00,
2013-03-07 12:58:00,61.6,38.3,30.22,ESE,106,2.0,3.0,42,0.00,,,0.00,Wunderground v.1.15,2013-03-07 17:58:00,
2013-03-07 13:04:00,62.6,38.6,30.22,SE,128,2.0,6.0,41,0.00,,,0.00,Wunderground v.1.15,2013-03-07 18:04:00,
2013-03-07 13:10:00,61.2,36.0,30.21,NW,312,2.0,4.0,39,0.00,,,0.00,Wunderground v.1.15,2013-03-07 18:10:00,
2013-03-07 13:16:00,60.1,36.9,30.21,NNE,17,3.0,4.0,42,0.00,,,0.00,Wunderground v.1.15,2013-03-07 18:16:00,
2013-03-07 13:22:00,60.1,36.9,30.21,SSW,210,2.0,3.0,42,0.00,,,0.00,Wunderground v.1.15,2013-03-07 18:22:00,
2013-03-07 13:28:00,63.2,37.8,30.21,WSW,238,1.0,3.0,39,0.00,,,0.00,Wunderground v.1.15,2013-03-07 18:28:00,
2013-03-07 13:34:00,63.6,38.8,30.21,SSE,150,1.0,2.0,40,0.00,,,0.00,Wunderground v.1.15,2013-03-07 18:34:00,
2013-03-07 13:40:00,64.5,39.0,30.20,NNE,32,2.0,2.0,39,0.00,,,0.00,Wunderground v.1.15,2013-03-07 18:40:00,
2013-03-07 13:46:00,64.1,38.0,30.20,WSW,253,2.0,7.0,38,0.00,,,0.00,Wunderground v.1.15,2013-03-07 18:46:00,
2013-03-07 13:52:00,61.5,38.2,30.20,WSW,240,4.0,6.0,42,0.00,,,0.00,Wunderground v.1.15,2013-03-07 18:52:00,
2013-03-07 13:58:00,60.6,38.0,30.20,SW,226,5.0,7.0,43,0.00,,,0.00,Wunderground v.1.15,2013-03-07 18:58:00,
2013-03-07 14:04:00,61.1,37.8,30.19,NNW,335,4.0,5.0,42,0.00,,,0.00,Wunderground v.1.15,2013-03-07 19:04:00,
2013-03-07 14:10:00,62.6,37.3,30.19,WSW,244,2.0,3.0,39,0.00,,,0.00,Wunderground v.1.15,2013-03-07 19:10:00,
2013-03-07 14:16:00,62.3,37.0,30.19,SW,225,3.0,4.0,39,0.00,,,0.00,Wunderground v.1.15,2013-03-07 19:16:00,
2013-03-07 14:22:00,62.6,37.9,30.19,NW,305,2.0,3.0,40,0.00,,,0.00,Wunderground v.1.15,2013-03-07 19:22:00,
2013-03-07 14:28:00,64.4,37.5,30.18,SSW,200,1.0,3.0,37,0.00,,,0.00,Wunderground v.1.15,2013-03-07 19:28:00,
2013-03-07 14:36:00,64.9,42.5,30.18,South,175,2.0,8.0,44,0.00,,,0.00,Wunderground v.1.15,2013-03-07 19:36:00,
2013-03-07 14:42:00,63.5,41.2,30.18,SE,144,5.0,5.0,44,0.00,,,0.00,Wunderground v.1.15,2013-03-07 19:42:00,
2013-03-07 14:50:00,62.9,40.0,30.17,SW,215,4.0,6.0,43,0.00,,,0.00,Wunderground v.1.15,2013-03-07 19:50:00,
2013-03-07 14:56:00,62.3,40.1,30.17,ENE,63,5.0,6.0,44,0.00,,,0.00,Wunderground v.1.15,2013-03-07 19:56:00,
2013-03-07 15:02:00,62.8,40.5,30.17,SE,146,3.0,9.0,44,0.00,,,0.00,Wunderground v.1.15,2013-03-07 20:02:00,
2013-03-07 15:08:00,62.4,43.0,30.17,SSW,194,4.0,9.0,49,0.00,,,0.00,Wunderground v.1.15,2013-03-07 20:08:00,
2013-03-07 15:14:00,60.5,42.3,30.17,SSE,167,6.0,8.0,51,0.00,,,0.00,Wunderground v.1.15,2013-03-07 20:14:00,
2013-03-07 15:20:00,59.7,43.0,30.17,SSE,154,7.0,7.0,54,0.00,,,0.00,Wunderground v.1.15,2013-03-07 20:20:00,
2013-03-07 15:26:00,60.0,42.8,30.17,SE,126,6.0,7.0,53,0.00,,,0.00,Wunderground v.1.15,2013-03-07 20:26:00,
2013-03-07 15:32:00,60.1,42.9,30.17,SSE,157,5.0,5.0,53,0.00,,,0.00,Wunderground v.1.15,2013-03-07 20:32:00,
2013-03-07 15:38:00,59.9,42.7,30.17,SSE,148,5.0,7.0,53,0.00,,,0.00,Wunderground v.1.15,2013-03-07 20:38:00,
2013-03-07 15:44:00,59.9,43.2,30.17,SE,134,6.0,6.0,54,0.00,,,0.00,Wunderground v.1.15,2013-03-07 20:44:00,
2013-03-07 15:50:00,58.9,43.2,30.16,SE,129,6.0,8.0,56,0.00,,,0.00,Wunderground v.1.15,2013-03-07 20:50:00,
2013-03-07 15:56:00,59.4,43.2,30.16,SE,125,5.0,8.0,55,0.00,,,0.00,Wunderground v.1.15,2013-03-07 20:56:00,
2013-03-07 16:02:00,59.6,43.9,30.16,SE,132,5.0,7.0,56,0.00,,,0.00,Wunderground v.1.15,2013-03-07 21:02:00,
2013-03-07 16:08:00,59.3,43.1,30.16,SE,125,5.0,8.0,55,0.00,,,0.00,Wunderground v.1.15,2013-03-07 21:08:00,
2013-03-07 16:14:00,59.4,43.2,30.16,SE,142,5.0,5.0,55,0.00,,,0.00,Wunderground v.1.15,2013-03-07 21:14:00,
2013-03-07 16:20:00,59.6,43.9,30.16,SE,128,4.0,7.0,56,0.00,,,0.00,Wunderground v.1.15,2013-03-07 21:20:00,
2013-03-07 16:26:00,59.1,42.9,30.16,SSE,149,5.0,7.0,55,0.00,,,0.00,Wunderground v.1.15,2013-03-07 21:26:00,
2013-03-07 16:32:00,59.3,43.1,30.16,ESE,117,4.0,7.0,55,0.00,,,0.00,Wunderground v.1.15,2013-03-07 21:32:00,
2013-03-07 16:38:00,59.5,43.8,30.15,South,171,4.0,7.0,56,0.00,,,0.00,Wunderground v.1.15,2013-03-07 21:38:00,
2013-03-07 16:44:00,59.3,43.6,30.16,ESE,119,5.0,7.0,56,0.00,,,0.00,Wunderground v.1.15,2013-03-07 21:44:00,
2013-03-07 16:50:00,59.3,44.1,30.16,SSE,159,4.0,4.0,57,0.00,,,0.00,Wunderground v.1.15,2013-03-07 21:50:00,
2013-03-07 16:56:00,59.7,44.0,30.16,SSW,211,3.0,4.0,56,0.00,,,0.00,Wunderground v.1.15,2013-03-07 21:56:00,
2013-03-07 17:02:00,59.5,43.8,30.16,SE,127,3.0,6.0,56,0.00,,,0.00,Wunderground v.1.15,2013-03-07 22:02:00,
2013-03-07 17:08:00,58.3,43.6,30.16,SSE,152,4.0,10.0,58,0.00,,,0.00,Wunderground v.1.15,2013-03-07 22:08:00,
2013-03-07 17:14:00,58.6,43.9,30.16,SSE,157,4.0,4.0,58,0.00,,,0.00,Wunderground v.1.15,2013-03-07 22:14:00,
2013-03-07 17:20:00,58.6,43.4,30.16,SSE,158,3.0,4.0,57,0.00,,,0.00,Wunderground v.1.15,2013-03-07 22:20:00,
2013-03-07 17:26:00,58.4,43.7,30.16,SE,133,3.0,6.0,58,0.00,,,0.00,Wunderground v.1.15,2013-03-07 22:26:00,
2013-03-07 17:32:00,57.6,43.8,30.17,SSE,165,4.0,4.0,60,0.00,,,0.00,Wunderground v.1.15,2013-03-07 22:32:00,
2013-03-07 17:38:00,57.5,43.7,30.17,SE,138,4.0,4.0,60,0.00,,,0.00,Wunderground v.1.15,2013-03-07 22:38:00,
2013-03-07 17:44:00,57.4,43.6,30.17,SSE,159,4.0,4.0,60,0.00,,,0.00,Wunderground v.1.15,2013-03-07 22:44:00,
2013-03-07 17:50:00,57.2,43.9,30.17,ESE,123,3.0,3.0,61,0.00,,,0.00,Wunderground v.1.15,2013-03-07 22:50:00,
2013-03-07 17:56:00,56.6,43.7,30.17,SE,137,3.0,4.0,62,0.00,,,0.00,Wunderground v.1.15,2013-03-07 22:56:00,
2013-03-07 18:02:00,56.6,43.7,30.17,South,176,2.0,8.0,62,0.00,,,0.00,Wunderground v.1.15,2013-03-07 23:02:00,
2013-03-07 18:08:00,56.2,43.8,30.17,South,173,2.0,8.0,63,0.00,,,0.00,Wunderground v.1.15,2013-03-07 23:08:00,
2013-03-07 18:14:00,55.5,43.5,30.17,SSE,153,2.0,2.0,64,0.00,,,0.00,Wunderground v.1.15,2013-03-07 23:14:00,
2013-03-07 18:20:00,54.6,43.5,30.17,South,191,2.0,2.0,66,0.00,,,0.00,Wunderground v.1.15,2013-03-07 23:20:00,
2013-03-07 18:26:00,53.8,43.5,30.18,SSE,159,2.0,2.0,68,0.00,,,0.00,Wunderground v.1.15,2013-03-07 23:26:00,
2013-03-07 18:32:00,53.3,43.4,30.18,SE,138,2.0,2.0,69,0.00,,,0.00,Wunderground v.1.15,2013-03-07 23:32:00,
2013-03-07 18:38:00,52.8,43.3,30.18,SE,136,1.0,2.0,70,0.00,,,0.00,Wunderground v.1.15,2013-03-07 23:38:00,
2013-03-07 18:44:00,52.5,43.7,30.18,SE,130,1.0,1.0,72,0.00,,,0.00,Wunderground v.1.15,2013-03-07 23:44:00,
2013-03-07 18:50:00,52.1,43.7,30.19,SE,136,1.0,1.0,73,0.00,,,0.00,Wunderground v.1.15,2013-03-07 23:50:00,
2013-03-07 18:56:00,51.5,43.1,30.19,SE,141,0.0,1.0,73,0.00,,,0.00,Wunderground v.1.15,2013-03-07 23:56:00,
2013-03-07 19:02:00,50.9,43.3,30.19,SE,130,0.0,1.0,75,0.00,,,0.00,Wunderground v.1.15,2013-03-08 00:02:00,
2013-03-07 19:08:00,50.8,43.5,30.19,SE,136,1.0,6.0,76,0.00,,,0.00,Wunderground v.1.15,2013-03-08 00:08:00,
2013-03-07 19:14:00,50.4,43.1,30.19,SE,145,0.0,1.0,76,0.00,,,0.00,Wunderground v.1.15,2013-03-08 00:14:00,
2013-03-07 19:20:00,50.1,43.2,30.19,SSW,202,0.0,1.0,77,0.00,,,0.00,Wunderground v.1.15,2013-03-08 00:20:00,
2013-03-07 19:26:00,49.7,43.1,30.20,SSW,199,0.0,1.0,78,0.00,,,0.00,Wunderground v.1.15,2013-03-08 00:26:00,
2013-03-07 19:32:00,48.9,42.0,30.20,South,184,0.0,0.0,77,0.00,,,0.00,Wunderground v.1.15,2013-03-08 00:32:00,
2013-03-07 19:38:00,48.2,42.0,30.20,South,183,0.0,0.0,79,0.00,,,0.00,Wunderground v.1.15,2013-03-08 00:38:00,
2013-03-07 19:44:00,48.0,42.8,30.20,South,187,0.0,0.0,82,0.00,,,0.00,Wunderground v.1.15,2013-03-08 00:44:00,
2013-03-07 19:50:00,47.7,42.5,30.20,SSW,194,0.0,0.0,82,0.00,,,0.00,Wunderground v.1.15,2013-03-08 00:50:00,
2013-03-07 19:56:00,47.7,42.8,30.20,SSW,197,0.0,0.0,83,0.00,,,0.00,Wunderground v.1.15,2013-03-08 00:56:00,
2013-03-07 20:02:00,47.6,43.0,30.21,South,190,0.0,2.0,84,0.00,,,0.00,Wunderground v.1.15,2013-03-08 01:02:00,
2013-03-07 20:08:00,47.6,43.3,30.21,East,96,0.0,2.0,85,0.00,,,0.00,Wunderground v.1.15,2013-03-08 01:08:00,
2013-03-07 20:14:00,47.6,43.6,30.21,ESE,104,0.0,0.0,86,0.00,,,0.00,Wunderground v.1.15,2013-03-08 01:14:00,
2013-03-07 20:20:00,47.6,43.9,30.21,South,169,0.0,0.0,87,0.00,,,0.00,Wunderground v.1.15,2013-03-08 01:20:00,
2013-03-07 20:26:00,47.3,43.3,30.21,South,169,0.0,0.0,86,0.00,,,0.00,Wunderground v.1.15,2013-03-08 01:26:00,
2013-03-07 20:32:00,46.9,43.2,30.21,SSE,166,0.0,0.0,87,0.00,,,0.00,Wunderground v.1.15,2013-03-08 01:32:00,
2013-03-07 20:38:00,46.4,42.4,30.21,South,169,0.0,0.0,86,0.00,,,0.00,Wunderground v.1.15,2013-03-08 01:38:00,
2013-03-07 20:44:00,45.7,41.8,30.21,South,180,0.0,0.0,86,0.00,,,0.00,Wunderground v.1.15,2013-03-08 01:44:00,
2013-03-07 20:50:00,45.1,41.8,30.21,South,171,0.0,0.0,88,0.00,,,0.00,Wunderground v.1.15,2013-03-08 01:50:00,
2013-03-07 20:56:00,45.2,42.2,30.21,South,169,0.0,0.0,89,0.00,,,0.00,Wunderground v.1.15,2013-03-08 01:56:00,
2013-03-07 21:02:00,45.4,42.6,30.22,East,95,0.0,0.0,90,0.00,,,0.00,Wunderground v.1.15,2013-03-08 02:02:00,
2013-03-07 21:08:00,45.5,42.7,30.22,East,88,0.0,0.0,90,0.00,,,0.00,Wunderground v.1.15,2013-03-08 02:08:00,
2013-03-07 21:14:00,45.4,42.6,30.22,East,90,0.0,0.0,90,0.00,,,0.00,Wunderground v.1.15,2013-03-08 02:14:00,
2013-03-07 21:20:00,45.2,42.7,30.22,East,81,0.0,1.0,91,0.00,,,0.00,Wunderground v.1.15,2013-03-08 02:20:00,
2013-03-07 21:26:00,45.3,42.8,30.22,East,80,0.0,1.0,91,0.00,,,0.00,Wunderground v.1.15,2013-03-08 02:26:00,
2013-03-07 21:32:00,45.4,42.9,30.22,ENE,77,0.0,0.0,91,0.00,,,0.00,Wunderground v.1.15,2013-03-08 02:32:00,
2013-03-07 21:38:00,45.1,42.3,30.22,ENE,78,0.0,0.0,90,0.00,,,0.00,Wunderground v.1.15,2013-03-08 02:38:00,
2013-03-07 21:44:00,44.6,42.1,30.22,ENE,78,0.0,0.0,91,0.00,,,0.00,Wunderground v.1.15,2013-03-08 02:44:00,
2013-03-07 21:50:00,44.3,41.8,30.22,ENE,78,0.0,0.0,91,0.00,,,0.00,Wunderground v.1.15,2013-03-08 02:50:00,
2013-03-07 21:56:00,44.1,41.6,30.22,ENE,67,0.0,0.0,91,0.00,,,0.00,Wunderground v.1.15,2013-03-08 02:56:00,
2013-03-07 22:02:00,43.8,41.3,30.22,ENE,65,0.0,0.0,91,0.00,,,0.00,Wunderground v.1.15,2013-03-08 03:02:00,
2013-03-07 22:08:00,43.7,41.2,30.22,ENE,63,0.0,0.0,91,0.00,,,0.00,Wunderground v.1.15,2013-03-08 03:08:00,
2013-03-07 22:14:00,43.5,41.0,30.22,ENE,63,0.0,0.0,91,0.00,,,0.00,Wunderground v.1.15,2013-03-08 03:14:00,
2013-03-07 22:20:00,43.2,41.0,30.22,ENE,57,0.0,0.0,92,0.00,,,0.00,Wunderground v.1.15,2013-03-08 03:20:00,
2013-03-07 22:26:00,42.9,40.7,30.23,NE,51,0.0,0.0,92,0.00,,,0.00,Wunderground v.1.15,2013-03-08 03:26:00,
2013-03-07 22:32:00,42.9,40.7,30.23,NE,49,0.0,0.0,92,0.00,,,0.00,Wunderground v.1.15,2013-03-08 03:32:00,
2013-03-07 22:38:00,42.8,40.6,30.23,NNE,32,0.0,0.0,92,0.00,,,0.00,Wunderground v.1.15,2013-03-08 03:38:00,
2013-03-07 22:44:00,43.1,41.2,30.23,NW,309,0.0,0.0,93,0.00,,,0.00,Wunderground v.1.15,2013-03-08 03:44:00,
2013-03-07 22:52:00,43.3,41.4,30.23,NNW,335,0.0,0.0,93,0.00,,,0.00,Wunderground v.1.15,2013-03-08 03:52:00,
2013-03-07 22:58:00,43.6,42.0,30.22,NNW,335,0.0,0.0,94,0.00,,,0.00,Wunderground v.1.15,2013-03-08 03:58:00,
2013-03-07 23:04:00,43.4,41.5,30.22,NNW,335,0.0,1.0,93,0.00,,,0.00,Wunderground v.1.15,2013-03-08 04:04:00,
2013-03-07 23:10:00,43.1,40.9,30.22,NNW,335,0.0,0.0,92,0.00,,,0.00,Wunderground v.1.15,2013-03-08 04:10:00,
2013-03-07 23:16:00,42.7,40.5,30.22,NNW,336,0.0,0.0,92,0.00,,,0.00,Wunderground v.1.15,2013-03-08 04:16:00,
2013-03-07 23:22:00,42.2,40.0,30.22,NNW,329,0.0,0.0,92,0.00,,,0.00,Wunderground v.1.15,2013-03-08 04:22:00,
2013-03-07 23:28:00,42.5,40.9,30.22,WSW,252,0.0,0.0,94,0.00,,,0.00,Wunderground v.1.15,2013-03-08 04:28:00,
2013-03-07 23:34:00,42.5,40.6,30.22,WSW,252,0.0,0.0,93,0.00,,,0.00,Wunderground v.1.15,2013-03-08 04:34:00,
2013-03-07 23:40:00,42.1,40.2,30.22,WSW,252,0.0,0.0,93,0.00,,,0.00,Wunderground v.1.15,2013-03-08 04:40:00,
2013-03-07 23:46:00,42.2,40.3,30.22,NW,324,0.0,0.0,93,0.00,,,0.00,Wunderground v.1.15,2013-03-08 04:46:00,
2013-03-07 23:52:00,42.5,40.9,30.22,NW,324,0.0,0.0,94,0.00,,,0.00,Wunderground v.1.15,2013-03-08 04:52:00,
2013-03-07 23:58:00,42.7,41.1,30.22,NW,324,0.0,0.0,94,0.00,,,0.00,Wunderground v.1.15,2013-03-08 04:58:00,